Home   Weather   Bowling Green   Past weeks

Flag for USA Past Weather in Bowling Green, Kentucky, USA — Yesterday and Last 2 Weeks

66 °F


Feels Like: 66 °F
Forecast: 46 / 72 °F
Wind: 6 mph from Southeast

Location: Glasgow Municipal Airport

Current Time: Oct 25, 2016 at 12:36:05 PM

Latest Report: Oct 25, 2016 at 12:15 PM

Visibility: 10 mi

Pressure: 30.34 "Hg

Humidity: 35%

Dew Point: 37 °F

Location of Bowling GreenLocation

Past Weather in Bowling Green — Graph


Bowling Green Temperature Yesterday

Maximum temperature yesterday: 75 °F (at 2:35 PM)
Minimum temperature yesterday: 48 °F (at 11:55 PM)
Average temperature yesterday: 60 °F

High & Low Weather Summary for the Past Weeks

High87 °F (Oct 19, 12:55 PM)100% (Oct 11, 3:55 AM)30.38 "Hg (Oct 11, 3:55 AM)
Low38 °F (Oct 23, 4:15 AM)27% (Oct 11, 2:55 PM)29.87 "Hg (Oct 20, 3:15 PM)
Average63 °F71%30.13 "Hg
* Reported Oct 10 11:15 AM — Oct 25 11:15 AM, Bowling Green, Weather by CustomWeather, © 2016

Note: Actual official high and low records may vary slightly from our data, if they occured in-between our weather recording intervals... More about our weather records


Bowling Green Weather History for the Previous 24 Hours

Scroll right to see more
Time TempWeatherWind HumidityBarometerVisibility
11:15 AM
Tue, Oct 25
65 °FSunny.7 mph41%30.35 "Hg10 mi
10:55 AM63 °FSunny.9 mph41%30.35 "Hg10 mi
10:35 AM62 °FSunny.7 mph44%30.35 "Hg10 mi
10:15 AM61 °FSunny.12 mph49%30.34 "Hg10 mi
9:55 AM59 °FSunny.12 mph55%30.34 "Hg10 mi
9:35 AM57 °FSunny.9 mph59%30.35 "Hg10 mi
9:15 AM55 °FSunny.9 mph62%30.35 "Hg10 mi
8:55 AM53 °FSunny.6 mph68%30.35 "Hg10 mi
8:35 AM51 °FSunny.6 mph72%30.35 "Hg10 mi
8:15 AM48 °FSunny.6 mph76%30.35 "Hg10 mi
7:55 AM46 °FSunny.7 mph80%30.34 "Hg10 mi
7:35 AM45 °FSunny.5 mph84%30.35 "Hg10 mi
7:15 AM44 °FSunny.3 mph87%30.34 "Hg10 mi
6:55 AM44 °FSunny.3 mph87%30.34 "Hg10 mi
6:15 AM44 °FSunny.3 mph87%30.33 "Hg10 mi
5:55 AM44 °FClear.No wind85%30.33 "Hg10 mi
5:35 AM45 °FClear.5 mph85%30.33 "Hg5 mi
5:15 AM45 °FClear.3 mph84%30.33 "Hg10 mi
4:55 AM46 °FClear.3 mph82%30.33 "Hg10 mi
4:15 AM46 °FClear.6 mph82%30.32 "Hg10 mi
3:55 AM47 °FClear.6 mph82%30.32 "Hg10 mi
3:35 AM47 °FClear.6 mph80%30.32 "Hg10 mi
3:15 AM47 °FClear.6 mph80%30.31 "Hg10 mi
2:55 AM48 °FClear.6 mph79%30.32 "Hg10 mi
2:35 AM49 °FClear.7 mph78%30.32 "Hg10 mi
2:15 AM48 °FClear.6 mph78%30.32 "Hg10 mi
1:55 AM48 °FClear.5 mph80%30.32 "Hg10 mi
1:15 AM47 °FClear.5 mph81%30.32 "Hg10 mi
12:55 AM47 °FClear.3 mph83%30.32 "Hg10 mi
12:35 AM47 °FClear.3 mph84%30.32 "Hg10 mi
12:15 AM47 °FClear.3 mph85%30.32 "Hg10 mi
11:55 PM
Mon, Oct 24
48 °FClear.3 mph84%30.33 "Hg10 mi
11:35 PM50 °FClear.No wind76%30.33 "Hg10 mi
11:15 PM52 °FClear.No wind73%30.33 "Hg10 mi
10:55 PM53 °FClear.3 mph72%30.33 "Hg10 mi
10:35 PM52 °FClear.5 mph72%30.33 "Hg10 mi
10:15 PM51 °FClear.No wind75%30.32 "Hg10 mi
9:55 PM52 °FClear.3 mph73%30.32 "Hg10 mi
9:15 PM56 °FClear.5 mph64%30.32 "Hg10 mi
8:55 PM57 °FClear.No wind62%30.31 "Hg10 mi
8:35 PM57 °FClear.No wind62%30.31 "Hg10 mi
8:15 PM57 °FClear.No wind61%30.31 "Hg10 mi
7:55 PM58 °FClear.5 mph59%30.30 "Hg10 mi
7:35 PM59 °FClear.3 mph57%30.29 "Hg10 mi
7:15 PM60 °FClear.No wind54%30.29 "Hg10 mi
6:55 PM60 °FClear.No wind53%30.29 "Hg10 mi
6:15 PM62 °FClear.No wind51%30.27 "Hg10 mi
5:55 PM64 °FClear.No wind47%30.27 "Hg10 mi
5:35 PM66 °FClear.3 mph44%30.27 "Hg10 mi
5:15 PM68 °FClear.6 mph42%30.26 "Hg10 mi
4:55 PM69 °FClear.5 mph38%30.26 "Hg10 mi
4:15 PM72 °FSunny.6 mph35%30.26 "Hg10 mi
3:55 PM72 °FSunny.8 mph33%30.26 "Hg10 mi
3:35 PM73 °FSunny.7 mph32%30.25 "Hg10 mi
3:15 PM74 °FSunny.6 mph29%30.25 "Hg10 mi
2:55 PM74 °FSunny.7 mph31%30.25 "Hg10 mi
2:35 PM75 °FSunny.7 mph30%30.25 "Hg10 mi
2:15 PM74 °FSunny.8 mph28%30.25 "Hg10 mi
1:55 PM74 °FSunny.6 mph29%30.25 "Hg10 mi
1:35 PM74 °FSunny.7 mph32%30.25 "Hg10 mi
1:15 PM73 °FSunny.5 mph34%30.26 "Hg10 mi
12:55 PM74 °FSunny.6 mph34%30.26 "Hg10 mi
12:35 PM72 °FSunny.No wind38%30.27 "Hg10 mi
12:15 PM71 °FSunny.6 mph41%30.27 "Hg10 mi
Weather by CustomWeather, © 2016

See weather overviewHow to use our weather pages